Location: Luxembourg
(49.6117°N, 6.1300°E)
Time: 10:38:41
(UTC+01:00)

N. Korean satellite - Pass Details

Date: 31 January 2019
Orbit: 457 x 510 km, 97.2° (Epoch: 16 February)

Event Time Altitude Azimuth Distance (km) Brightness Sun altitude
Rises 06:00:42 0° 26° (NNE) 2,597 10.6 -20.9°
Reaches altitude 10° 06:03:15 10° 44° (NE) 1,698 9.8 -20.5°
Maximum altitude 06:05:58 20° 92° (E) 1,198 9.5 -20.1°
Drops below altitude 10° 06:08:38 10° 140° (SE) 1,663 9.9 -19.7°
Sets 06:11:05 0° 159° (SSE) 2,525 10.6 -19.3°
